EW9119 Weather Reports


time (UTC)temp
F
wind
direction
speed
knots
gust
knots
rain 1hr
in
rain 24hr
in
rain mn
in
humidity
%
barometer
mb
20260831164526 90 297 0.0 0.0 0.00 0.00 0.00 59 1017.4
20260831163021 89 279 0.0 0.0 0.00 0.00 0.00 61 1017.6
20260831161515 89 308 0.0 0.0 0.00 0.00 0.00 60 1017.7
20260831160014 87 61 0.0 0.0 0.00 0.00 0.00 61 1017.8
20260831154521 88 28 0.0 0.0 0.00 0.00 0.00 62 1017.9
20260831153002 88 332 0.0 0.0 0.00 0.00 0.00 61 1017.9
20260831151610 86 308 0.0 0.9 0.00 0.00 0.00 63 1017.9
20260831150055 86 319 0.0 0.0 0.00 0.00 0.00 64 1018.2
20260831144550 85 317 0.0 0.0 0.00 0.00 0.00 66 1018.2
20260831143047 84 331 0.0 0.9 0.00 0.00 0.00 68 1018.2
20260831141542 83 300 0.0 0.0 0.00 0.00 0.00 68 1018.1
20260831140047 82 284 0.0 0.0 0.00 0.00 0.00 68 1018.1
20260831134537 80 308 0.0 0.0 0.00 0.00 0.00 68 1018.2
20260831133031 79 298 0.0 0.0 0.00 0.00 0.00 65 1018.4
20260831131523 79 325 0.0 0.0 0.00 0.00 0.00 59 1018.3
20260831130019 78 285 0.0 0.0 0.00 0.00 0.00 38 1018.6
20260831124519 75 314 0.0 0.0 0.00 0.00 0.00 1 1018.5
20260831123016 73 360 0.0 0.0 0.00 0.00 0.00 1 1018.3
20260831121505 71 355 0.0 0.0 0.00 0.00 0.00 1 1018.3
20260831120001 69 355 0.0 0.0 0.00 0.00 0.00 1 1018.4
20260831114558 69 355 0.0 0.0 0.00 0.00 0.00 1 1018.4
20260831113052 69 360 0.0 0.0 0.00 0.00 0.00 1 1018.3
20260831111553 69 104 0.0 0.0 0.00 0.00 0.00 1 1018.1
20260831110053 69 104 0.0 0.0 0.00 0.00 0.00 1 1018.1
20260831104601 69 104 0.0 0.0 0.00 0.00 0.00 1 1018.0
20260831103049 69 104 0.0 0.0 0.00 0.00 0.00 1 1017.9
20260831101548 69 104 0.0 0.0 0.00 0.00 0.00 1 1017.7
20260831100055 69 104 0.0 0.0 0.00 0.00 0.00 1 1017.6
20260831094541 69 104 0.0 0.0 0.00 0.00 0.00 1 1017.6
20260831093036 69 104 0.0 0.0 0.00 0.00 0.00 1 1017.6
20260831091530 69 104 0.0 0.0 0.00 0.00 0.00 1 1017.6
20260831090026 69 104 0.0 0.0 0.00 0.00 0.00 1 1017.6
20260831084534 69 104 0.0 0.0 0.00 0.00 0.00 1 1017.5
20260831083035 70 104 0.0 0.0 0.00 0.00 0.00 1 1017.6
20260831081514 70 104 0.0 0.0 0.00 0.00 0.00 1 1017.6
20260831080022 70 104 0.0 0.0 0.00 0.00 0.00 1 1017.5
20260831074510 70 104 0.0 0.0 0.00 0.00 0.00 1 1017.6
20260831073003 70 104 0.0 0.0 0.00 0.00 0.00 1 1017.6
20260831071557 70 104 0.0 0.0 0.00 0.00 0.00 1 1017.8
20260831070105 70 104 0.0 0.0 0.00 0.00 0.00 1 1017.8
20260831064549 70 104 0.0 0.0 0.00 0.00 0.00 1 1017.9
20260831063043 70 104 0.0 0.0 0.00 0.00 0.00 1 1017.9
20260831061540 70 104 0.0 0.0 0.00 0.00 0.00 1 1018.0
20260831060035 70 104 0.0 0.0 0.00 0.00 0.00 1 1017.9
20260831054532 70 104 0.0 0.0 0.00 0.00 0.00 1 1018.0
20260831053027 71 104 0.0 0.0 0.00 0.00 0.00 1 1018.0
20260831051523 71 104 0.0 0.0 0.00 0.00 0.00 1 1018.1
20260831050018 71 104 0.0 0.0 0.00 0.00 0.00 7 1018.1
20260831044520 71 104 0.0 0.0 0.00 0.00 0.00 12 1018.1
20260831043012 72 104 0.0 0.0 0.00 0.00 0.00 22 1018.2
20260831041510 72 104 0.0 0.0 0.00 0.00 0.00 23 1018.2
20260831040009 72 104 0.0 0.0 0.00 0.00 0.00 35 1018.1
20260831034502 73 104 0.0 0.0 0.00 0.00 0.00 37 1018.2
20260831033101 73 104 0.0 0.0 0.00 0.00 0.00 40 1018.3
20260831031554 73 104 0.0 0.0 0.00 0.00 0.00 46 1018.3
20260831030059 74 104 0.0 0.0 0.00 0.00 0.00 51 1018.4
20260831024546 74 104 0.0 0.0 0.00 0.00 0.00 55 1018.4
20260831023041 75 104 0.0 0.0 0.00 0.00 0.00 60 1018.5
20260831021639 75 104 0.0 0.0 0.00 0.00 0.00 63 1018.4
20260831020034 76 104 0.0 0.0 0.00 0.00 0.00 64 1018.3
20260831014532 76 104 0.0 0.0 0.00 0.00 0.00 65 1018.3
20260831013027 76 104 0.0 0.0 0.00 0.00 0.00 65 1018.1
20260831011521 77 104 0.0 0.0 0.00 0.00 0.00 66 1018.0
20260831010017 77 113 0.0 0.0 0.00 0.00 0.00 68 1017.6
20260831004513 77 111 0.0 0.0 0.00 0.00 0.00 69 1017.5
20260831003008 78 111 0.0 0.0 0.00 0.00 0.00 70 1017.4
20260831001506 79 111 0.0 0.0 0.00 0.00 0.00 70 1017.3
20260831000003 80 111 0.0 0.0 0.00 0.00 0.00 70 1017.4
20260830234559 81 111 0.0 0.0 0.00 0.00 0.00 69 1017.4
20260830233104 81 111 0.0 0.0 0.00 0.00 0.00 68 1017.4
20260830231555 82 111 0.0 0.0 0.00 0.00 0.00 68 1017.4
20260830230045 83 111 0.0 0.0 0.00 0.00 0.00 67 1017.3
20260830224600 83 94 0.0 0.0 0.00 0.00 0.00 66 1017.4
20260830223037 83 94 0.0 0.0 0.00 0.00 0.00 65 1017.2
20260830221532 83 95 0.0 0.0 0.00 0.00 0.00 64 1017.1
20260830220029 84 119 0.0 0.0 0.00 0.00 0.00 64 1017.1
20260830214534 83 317 0.0 0.0 0.00 0.00 0.00 63 1017.0
20260830213020 84 107 0.0 0.0 0.00 0.00 0.00 63 1017.1
20260830211516 84 152 0.0 0.0 0.00 0.00 0.00 62 1017.2
20260830210020 85 161 0.0 0.0 0.00 0.00 0.00 61 1017.3
20260830204507 85 168 0.0 0.0 0.00 0.00 0.00 58 1017.3
20260830203003 85 136 0.0 0.0 0.00 0.00 0.00 57 1017.3
20260830201557 85 256 0.0 0.0 0.00 0.00 0.00 57 1017.5
20260830200053 86 200 0.0 0.0 0.00 0.00 0.00 58 1017.6
20260830194549 86 10 0.0 0.0 0.00 0.00 0.00 60 1017.7
20260830193045 85 360 0.0 0.0 0.00 0.00 0.00 61 1017.9
20260830191539 84 154 0.0 0.0 0.00 0.00 0.00 63 1018.1
20260830190035 83 299 0.0 0.0 0.00 0.00 0.00 67 1018.3
20260830184531 83 299 0.0 0.0 0.00 0.00 0.00 65 1018.7
20260830183027 83 298 0.0 0.0 0.00 0.00 0.00 64 1019.1
20260830181522 85 337 0.0 0.0 0.00 0.00 0.00 61 1019.2
20260830180018 85 321 0.0 0.0 0.00 0.00 0.00 61 1019.4
20260830174513 85 151 0.0 0.0 0.00 0.00 0.00 62 1019.7
20260830173009 85 146 0.0 0.0 0.00 0.00 0.00 65 1020.0
20260830171504 84 333 0.0 0.0 0.00 0.00 0.00 64 1020.1
20260830170104 81 335 0.0 0.0 0.00 0.00 0.00 69 1020.4